New River MCAS, NC

2:23 AM EDT on June 27, 2017 (GMT -0400)
New River Marine Corps Air Station

Weather History for KNCA - May, 2013

Change the Weather History Date:

Saturday, May 11, 2013

  Actual Average Record
Temperature  
Mean Temperature 76 °F -  
Max Temperature 82 °F 77 °F 88 °F (2003)
Min Temperature 69 °F 55 °F 39 °F (1997)
Cooling Degree Days 10    
Growing Degree Days 26 (Base 50)    
Moisture  
Dew Point 67 °F    
Average Humidity 77    
Maximum Humidity 94    
Minimum Humidity 56    
Precipitation  
Precipitation 0.08 in - - ()
Sea Level Pressure  
Sea Level Pressure 29.94 in    
Wind  
Wind Speed 9 mph (SSW)    
Max Wind Speed 14 mph    
Max Gust Speed 24 mph    
Visibility 9 miles    
Events Rain , Thunderstorm    
Averages and records for this station are not official NWS values.
T = Trace of Precipitation, MM = Missing Value Source: NWS Daily Summary

Daily Weather History Graph

Daily Weather History Graph

Search for Another Location

Airport or City:

Trip Planner

Search our weather history database for the weather conditions in past years. The results will help you decide how hot, cold, wet, or windy it might be!

Date:

Astronomy

May. 11, 2013 Rise Set
Actual Time 6:09 AM EDT 8:02 PM EDT
Civil Twilight 5:42 AM EDT 8:30 PM EDT
Nautical Twilight 5:08 AM EDT 9:04 PM EDT
Astronomical Twilight 4:32 AM EDT 9:40 PM EDT
Moon 7:17 AM EDT (5/11) 9:40 PM EDT (5/11)
Length of Visible Light 14h 48m
Length of Day
13h 53m
Waxing Crescent, 3% of the Moon is Illuminated
May 11
Waxing Crescent
May 18
First Quarter
May 25
Full
May 31
Last Quarter
Jun 8
New

Hourly Weather History & Observations

Time (EDT) Temp. Heat Index Dew Point Humidity Pressure Visibility Wind Dir Wind Speed Gust Speed Precip Events Conditions
12:56 AM 69.1 °F - 64.9 °F 87% 30.04 in 10.0 mi South 8.1 mph - N/A   Clear
1:56 AM 70.0 °F - 66.0 °F 87% 30.02 in 10.0 mi SSW 8.1 mph - N/A   Clear
2:56 AM 70.0 °F - 66.9 °F 90% 30.01 in 10.0 mi SSW 6.9 mph - N/A   Clear
3:56 AM 71.1 °F - 68.0 °F 90% 30.01 in 10.0 mi SSW 6.9 mph - N/A   Clear
4:56 AM 71.1 °F - 66.9 °F 87% 30.00 in 10.0 mi SSW 8.1 mph - N/A   Clear
5:56 AM 70.0 °F - 66.0 °F 87% 30.00 in 10.0 mi SSW 8.1 mph - N/A   Clear
6:31 AM 69.8 °F - 66.2 °F 88% 30.01 in 10.0 mi SSW 5.8 mph - N/A   Partly Cloudy
6:56 AM 70.0 °F - 66.0 °F 87% 30.01 in 10.0 mi SSW 6.9 mph - N/A   Clear
7:56 AM 72.0 °F - 66.9 °F 84% 30.00 in 10.0 mi SSW 8.1 mph - N/A   Clear
8:56 AM 73.9 °F - 66.9 °F 79% 29.99 in 10.0 mi SSW 9.2 mph 17.3 mph N/A   Partly Cloudy
9:56 AM 77.0 °F - 66.9 °F 71% 29.98 in 10.0 mi SSW 9.2 mph 17.3 mph N/A   Partly Cloudy
10:17 AM 77.0 °F - 68.0 °F 74% 29.96 in 10.0 mi SSW 11.5 mph 19.6 mph N/A   Mostly Cloudy
10:37 AM 80.6 °F 83.9 °F 69.8 °F 70% 29.96 in 10.0 mi SSW 11.5 mph 19.6 mph N/A   Mostly Cloudy
10:56 AM 80.1 °F 82.9 °F 69.1 °F 69% 29.97 in 10.0 mi SSW 9.2 mph 17.3 mph N/A   Mostly Cloudy
11:27 AM 78.8 °F - 68.0 °F 69% 29.94 in 10.0 mi South 8.1 mph - N/A   Mostly Cloudy
11:42 AM 75.2 °F - 69.8 °F 83% 29.94 in 1.8 mi South 10.4 mph 24.2 mph 0.08 in Rain Heavy Rain
11:48 AM 75.2 °F - 73.4 °F 94% 29.94 in 2.0 mi South 9.2 mph - 0.08 in Rain Light Rain
11:56 AM 78.1 °F - 73.0 °F 84% 29.96 in 9.0 mi South 12.7 mph 23.0 mph 0.08 in   Scattered Clouds
12:56 PM 80.1 °F 82.7 °F 68.0 °F 67% 29.93 in 10.0 mi South 12.7 mph 23.0 mph N/A   Scattered Clouds
1:37 PM 78.8 °F - 69.8 °F 74% 29.90 in 10.0 mi South 11.5 mph 19.6 mph N/A Thunderstorm Thunderstorm
1:56 PM 81.0 °F 84.4 °F 70.0 °F 69% 29.89 in 10.0 mi South 13.8 mph 23.0 mph 0.00 in   Scattered Clouds
2:56 PM 82.0 °F 84.9 °F 68.0 °F 62% 29.88 in 10.0 mi South 12.7 mph 23.0 mph N/A   Clear
4:56 PM 80.1 °F 81.5 °F 63.0 °F 56% 29.86 in 10.0 mi South 13.8 mph 19.6 mph N/A   Clear
5:56 PM 77.0 °F - 62.1 °F 60% 29.86 in 10.0 mi South 8.1 mph - N/A   Clear
6:56 PM 75.0 °F - 63.0 °F 66% 29.85 in 10.0 mi SSW 8.1 mph - N/A   Clear
7:56 PM 72.0 °F - 64.0 °F 76% 29.86 in 10.0 mi South 8.1 mph - N/A   Clear
8:56 PM 71.1 °F - 63.0 °F 75% 29.88 in 10.0 mi SSW 6.9 mph - N/A   Clear
9:56 PM 70.0 °F - 62.1 °F 76% 29.88 in 10.0 mi SSW 9.2 mph - N/A   Clear
10:56 PM 70.0 °F - 63.0 °F 78% 29.88 in 10.0 mi SSW 9.2 mph - N/A   Scattered Clouds
11:56 PM 71.1 °F - 63.0 °F 75% 29.87 in 10.0 mi SW 8.1 mph - N/A   Clear